Sioux Falls, SD

11:39 PM CST on December 10, 2019 (GMT -0600)
Foss

Weather History for KFSD - November, 2019

Change the Weather History Date:

Friday, November 22, 2019

  Actual Average Record
Temperature  
Mean Temperature 25 °F 29 °F  
Max Temperature 38 °F 38 °F 66 °F (1908)
Min Temperature 12 °F 19 °F -8 °F (1898)
Degree Days  
Heating Degree Days 40 36  
Month to date heating degree days 719 661  
Since 1 July heating degree days 1391 1401  
Cooling Degree Days 0 0  
Month to date cooling degree days 0 0  
Year to date cooling degree days 830 690  
Moisture  
Dew Point 16 °F    
Average Humidity 70    
Maximum Humidity 88    
Minimum Humidity 47    
Precipitation  
Precipitation 0.00 in 0.05 in 1.60 in (1908)
Month to date precipitation 0.46 1.03  
Year to date precipitation 37.41 25.36  
Snow  
Snow 0.00 in 0.30 in 4.60 in (1983)
Month to date snowfall 1.9 4.9  
Since 1 July snowfall 2.8 6.2  
Since 1 September snowfall 2.8 6.2  
Snow Depth 0.00 in    
Sea Level Pressure  
Sea Level Pressure 30.19 in    
Wind  
Wind Speed 4 mph ()    
Max Wind Speed 15 mph    
Max Gust Speed 24 mph    
Visibility 10.0 miles    
Events      
T = Trace of Precipitation, MM = Missing Value Source: Averaged Metar Reports

Daily Weather History Graph

Daily Weather History Graph

Search for Another Location

Airport or City:

Astronomy

Nov. 22, 2019 Rise Set
Actual Time 7:29 AM CST 4:56 PM CST
Civil Twilight 6:58 AM CST 5:27 PM CST
Nautical Twilight 6:22 AM CST 6:02 PM CST
Astronomical Twilight 5:48 AM CST 6:36 PM CST
Moon 2:25 AM CST (11/22) 3:07 PM CST (11/22)
Length of Visible Light 10h 29m
Length of Day
9h 26m
Waning Crescent, 19% of the Moon is Illuminated
Nov 22
Waning Crescent
Nov 26
New
Dec 4
First Quarter
Dec 11
Full
Dec 18
Last Quarter

Hourly Weather History & Observations

Time (CST) Temp. Windchill Dew Point Humidity Pressure Visibility Wind Dir Wind Speed Gust Speed Precip Events Conditions
12:56 AM 18.0 °F - 14.0 °F 84% 30.31 in 10.0 mi Calm Calm - N/A   Clear
1:56 AM 16.0 °F 10.4 °F 12.0 °F 84% 30.31 in 10.0 mi WNW 3.5 mph - N/A   Clear
2:56 AM 18.0 °F 12.7 °F 12.9 °F 81% 30.32 in 10.0 mi West 3.5 mph - N/A   Clear
3:56 AM 17.1 °F 11.7 °F 12.0 °F 81% 30.31 in 10.0 mi WSW 3.5 mph - N/A   Clear
4:56 AM 17.1 °F - 12.0 °F 81% 30.31 in 10.0 mi Calm Calm - N/A   Clear
5:56 AM 15.1 °F - 10.9 °F 84% 30.31 in 10.0 mi Calm Calm - N/A   Clear
6:56 AM 12.9 °F - 9.0 °F 84% 30.30 in 10.0 mi Calm Calm - N/A   Clear
7:53 AM 15.8 °F - 10.4 °F 79% 30.22 in 10.0 mi Calm Calm - N/A   Partly Cloudy
7:56 AM 15.8 °F - 10.4 °F 79% 30.29 in 10.0 mi Calm Calm - N/A   Partly Cloudy
8:56 AM 21.9 °F - 17.1 °F 82% 30.29 in 10.0 mi Calm Calm - N/A   Clear
9:56 AM 26.1 °F - 19.9 °F 78% 30.28 in 10.0 mi Calm Calm - N/A   Clear
10:56 AM 28.9 °F 22.8 °F 18.0 °F 64% 30.27 in 10.0 mi South 5.8 mph - N/A   Partly Cloudy
11:56 AM 34.0 °F 27.2 °F 17.1 °F 50% 30.25 in 10.0 mi SW 8.1 mph - N/A   Partly Cloudy
12:56 PM 35.1 °F 26.9 °F 18.0 °F 50% 30.20 in 10.0 mi SSW 11.5 mph - N/A   Clear
1:56 PM 36.0 °F 29.6 °F 18.0 °F 48% 30.18 in 10.0 mi SSW 8.1 mph - N/A   Clear
2:56 PM 37.0 °F 29.3 °F 21.0 °F 52% 30.14 in 10.0 mi SSW 11.5 mph - N/A   Clear
3:56 PM 36.0 °F 29.0 °F 21.0 °F 55% 30.12 in 10.0 mi SSW 9.2 mph - N/A   Clear
4:56 PM 30.9 °F 22.8 °F 21.0 °F 67% 30.11 in 10.0 mi South 9.2 mph - N/A   Partly Cloudy
5:56 PM 27.0 °F 18.7 °F 19.0 °F 72% 30.10 in 10.0 mi South 8.1 mph - N/A   Partly Cloudy
6:56 PM 30.0 °F 20.0 °F 21.0 °F 69% 30.09 in 10.0 mi SSW 12.7 mph - N/A   Partly Cloudy
7:56 PM 30.0 °F 20.0 °F 21.0 °F 69% 30.06 in 10.0 mi SSW 12.7 mph - N/A   Partly Cloudy
8:56 PM 30.9 °F 21.2 °F 19.9 °F 64% 30.02 in 10.0 mi SSW 12.7 mph - N/A   Partly Cloudy
9:56 PM 30.9 °F 22.8 °F 19.0 °F 61% 30.01 in 10.0 mi SSW 9.2 mph 19.6 mph N/A   Partly Cloudy
10:56 PM 28.9 °F 21.1 °F 18.0 °F 64% 29.99 in 10.0 mi SSW 8.1 mph - N/A   Partly Cloudy
11:56 PM 28.0 °F 19.3 °F 18.0 °F 66% 29.96 in 10.0 mi SSW 9.2 mph - N/A   Scattered Clouds